This is the latest recevied weather packets stored in our database for station/object HB9TJR-3. If no packets are shown the sender has not sent any weather packets the latest 1 day(s).
| Time | Temp. | Humidity | Pressure | Rain* | Wind** | Luminosity | Snow |
|---|---|---|---|---|---|---|---|
| 1777968934 | 7.78° C | 89% | 859.7 hPa | 0 mm | 0 m/s | - | - |
| 1777967974 | 7.78° C | 89% | 859.7 hPa | 0 mm | 0 m/s | - | - |
| 1777966055 | 7.78° C | 89% | 859.7 hPa | 0 mm | 0 m/s | - | - |
| 1777965094 | 7.22° C | 90% | 859.7 hPa | 0 mm | 0 m/s | - | - |
| 1777964134 | 7.22° C | 92% | 859.8 hPa | 0 mm | 0 m/s | - | - |
| 1777963174 | 7.22° C | 92% | 859.9 hPa | 0 mm | 0 m/s | - | - |
| 1777962214 | 7.22° C | 93% | 860 hPa | 0 mm | 0 m/s | - | - |
| 1777961254 | 7.22° C | 92% | 860.2 hPa | 0 mm | 0 m/s | - | - |
| 1777960293 | 7.22° C | 91% | 860.5 hPa | 0 mm | 0 m/s | - | - |
| 1777959334 | 7.22° C | 93% | 860.4 hPa | 0 mm | 0 m/s | - | - |
| 1777958374 | 7.22° C | 95% | 860.6 hPa | 0 mm | 0 m/s | - | - |
| 1777957414 | 7.22° C | 95% | 860.6 hPa | 0 mm | 0 m/s | - | - |
| 1777956455 | 7.22° C | 95% | 860.6 hPa | 0 mm | 0 m/s | - | - |
| 1777955495 | 7.22° C | 95% | 860.6 hPa | 0 mm | 0 m/s | - | - |
| 1777954534 | 7.78° C | 91% | 860.7 hPa | 0 mm | 0 m/s | - | - |
| 1777953574 | 8.33° C | 90% | 860.6 hPa | 0 mm | 0 m/s | - | - |
| 1777952614 | 8.33° C | 90% | 860.7 hPa | 0 mm | 0 m/s | - | - |
| 1777951654 | 8.89° C | 89% | 860.9 hPa | 0 mm | 0 m/s | - | - |
| 1777950695 | 8.89° C | 87% | 860.9 hPa | 0 mm | 0 m/s | - | - |
| 1777949734 | 8.89° C | 87% | 860.9 hPa | 0 mm | 0 m/s | - | - |
| 1777948774 | 8.89° C | 87% | 861 hPa | 0 mm | 0 m/s | - | - |
| 1777947814 | 8.33° C | 88% | 861.2 hPa | 0 mm | 0 m/s | - | - |
| 1777946854 | 8.89° C | 87% | 861.4 hPa | 0 mm | 0 m/s | - | - |
| 1777945894 | 9.44° C | 86% | 861.5 hPa | 0 mm | 0 m/s | - | - |
| 1777944935 | 9.44° C | 86% | 861.6 hPa | 0 mm | 0 m/s | - | - |
* Rain latest hour (hover to see other rain measurements)
** Current wind speed in m/s (hover to see current wind gust speed)